Location: Carnoy
(49.9849°N, 2.7558°E)
Time: 21:56:17
(UTC+00:00)

CZ-4 R/B - Pass Details

Date: 24 January 2020
Orbit: 580 x 589 km, 97.8° (Epoch: 18 February)

Event Time Altitude Azimuth Distance (km) Brightness Sun altitude
Rises 17:52:39 0° 163° (SSE) 2,795 7.9 -13.3°
Reaches altitude 10° 17:54:47 10° 163° (SSE) 1,898 7.0 -13.6°
Maximum altitude 17:58:55 86° 75° (ENE) 591 4.4 -14.3°
Drops below altitude 10° 18:03:03 10° 347° (NNW) 1,910 7.1 -14.9°
Sets 18:05:13 0° 347° (NNW) 2,814 8.0 -15.3°
